NOAA 20 (JPSS-1)

Last updated on Sun Apr 12 2026 00:02:27 GMT+0000 (Coordinated Universal Time)

1 43013U 17073A 26101.53341878 .00000042 00000+0 40937-4 0 9990 2 43013 98.7729 41.6020 0002137 93.2155 266.9266 14.19544862435010
UTC large
Height (km)
Speed (km/s)
/
Latitude / Longitude
Inclination (degrees)
Orbital Period (minutes)
Azimuth
Elevation
Range (km)
Doppler Factor

Next 0 passes for location: London (51.5072 / 0.1276)

Sorry there are no passes over London.
NOAA 20 (JPSS-1)